Torna al catalogo

STARLINK-37530

AttivoComunicazioniSSO
NORAD 69131·PAYLOAD·🇺🇸 United States

Lanciato May 20, 2026 da Vandenberg Space Force Base

Loading…

Prossimi Passaggi (prossime 24 ore)

TLE

AggiornatoSource: CelesTrak SupGP

Epoca: Sep 15, 2026, 02:51 UTC

1 69131C 26110H   26258.11923611 -.00035863  00000+0 -11130-2 0  2589
2 69131  97.2855  93.2287 0001544  98.5523 123.0101 15.33463770    13

Traccia STARLINK-37530 in tempo reale con AllMySat

Download on the App Store